Wind_Speed
13 13 13 13 13 12 13 12 11 10 9 7 6 5 5 3 3 3 3 3 3 3 3 3 3 4 4 5 6 6 5 4 4 4 3 3 3 3 3 3 3 3 3 3 4 4 5 4 4
14 14 14 15 13 13 15 14 13 12 10 8 7 6 6 5 4 4 4 4 5 5 5 5 5 6 7 7 8 8 7 6 6 5 5 5 5 4 4 4 4 5 5 4 5 5 5 5 5
16 15 15 15 15 15 17 16 14 13 12 10 9 8 7 6 6 6 6 6 6 7 7 7 8 8 8 8 9 9 8 8 7 7 7 7 7 6 6 7 6 6 6 6 6 7 7 7 6
16 16 16 16 17 19 19 17 16 14 13 12 11 9 8 8 8 8 8 8 8 7 7 8 9 9 9 9 10 10 9 9 9 8 8 8 8 9 9 9 9 8 8 8 8 8 8 8 8
17 17 17 18 19 19 19 19 17 16 15 13 12 10 9 9 9 9 9 8 9 9 9 10 11 11 11 11 11 11 11 11 10 10 10 10 10 10 10 10 10 10 10 10 10 10 10 10 9
17 17 17 18 20 20 20 20 19 17 15 14 12 11 11 10 10 10 10 11 11 10 10 11 11 11 12 12 12 12 12 12 12 12 12 12 12 12 12 12 12 12 12 11 11 12 12 12 11
17 17 19 20 20 21 21 20 20 18 16 15 13 13 13 12 11 11 12 12 12 11 10 11 11 12 13 13 13 13 13 13 13 14 14 14 14 14 14 14 14 14 14 14 13 13 14 14 13
18 18 20 21 21 22 22 20 20 19 17 16 15 15 14 14 14 14 14 14 13 12 12 12 12 13 14 14 15 15 15 15 15 16 16 16 16 16 16 16 16 16 16 15 15 15 15 15 15
18 19 21 22 23 23 22 21 20 19 19 17 17 16 16 15 15 15 15 14 14 14 14 14 14 14 14 15 15 16 16 16 16 17 17 17 18 18 17 17 18 17 17 17 17 17 16 16 16
18 20 22 22 22 22 22 21 21 20 19 18 17 17 16 16 16 16 16 15 14 15 15 15 15 15 16 16 17 17 17 17 17 17 18 18 18 19 19 19 19 18 18 18 18 18 18 18 18
19 21 21 21 22 22 22 21 21 20 20 19 19 18 17 17 16 16 16 15 15 15 16 17 17 17 17 17 18 18 19 19 19 19 19 19 20 20 20 20 20 20 20 19 20 20 19 19 19
19 19 20 21 21 22 22 22 21 20 20 19 19 19 18 18 17 17 17 16 16 16 16 17 18 19 19 18 19 19 19 19 20 20 21 21 22 22 22 21 21 21 21 21 21 21 21 21 21
19 19 19 20 21 21 21 21 20 20 20 19 19 19 18 17 17 17 17 17 17 16 16 16 18 19 19 19 20 21 21 21 21 22 22 23 23 23 24 23 23 23 23 22 23 23 23 23 22
18 18 19 20 21 21 21 20 20 19 18 19 19 19 19 19 18 17 16 16 17 17 17 18 18 19 19 20 21 21 21 22 23 24 24 25 25 25 25 25 25 25 24 24 24 24 25 24 24
18 18 18 20 20 20 19 20 20 19 19 19 19 18 18 18 17 17 16 16 17 18 18 18 19 19 19 19 21 21 21 23 23 24 25 26 26 27 27 26 26 26 26 26 25 25 25 25 26
17 17 18 18 19 18 17 19 20 19 19 18 18 18 18 18 18 18 18 17 17 18 19 19 20 20 20 21 21 21 21 22 23 24 24 25 26 27 27 27 27 27 27 27 27 26 26 26 26
17 16 17 17 17 17 17 19 19 18 18 18 17 18 18 18 18 18 18 18 18 18 18 18 18 19 20 21 22 22 21 21 22 23 24 25 26 27 27 27 27 28 28 27 28 28 27 27 27
16 16 16 15 16 15 16 17 18 17 17 17 17 18 19 19 19 18 18 18 17 18 18 17 19 20 21 21 22 22 22 23 23 24 25 26 26 27 27 28 27 28 28 28 29 28 28 28 28
16 15 14 14 14 15 16 16 16 16 17 17 17 18 18 19 18 18 18 17 18 17 17 18 19 20 21 21 21 21 22 23 24 25 25 26 26 27 28 28 28 27 28 29 29 28 28 29 29
14 14 13 14 13 14 14 15 15 15 16 16 16 16 17 18 18 18 19 19 18 18 18 19 20 20 21 21 22 23 24 25 25 26 27 27 27 28 28 28 28 29 29 29 29 29 30 30 30
13 13 13 14 14 14 13 13 14 15 15 15 15 16 17 18 18 19 19 18 18 19 20 20 20 20 21 23 24 24 24 25 26 26 27 27 27 27 28 28 29 29 28 28 29 29 30 30 30
12 13 13 13 13 13 12 12 15 16 16 15 15 16 16 16 17 17 18 19 19 20 21 21 21 21 22 23 23 24 24 25 26 26 27 28 28 28 28 28 27 27 28 28 28 29 30 31 30
13 13 12 12 12 12 13 12 14 16 15 14 15 16 16 16 17 17 18 19 19 20 21 21 21 22 23 23 24 25 25 25 26 26 27 28 28 28 28 28 28 28 29 29 29 29 30 30 31
12 12 12 12 11 11 12 12 12 13 13 14 14 15 16 16 17 17 17 19 20 20 20 21 22 22 23 24 25 25 26 27 27 28 29 29 29 29 29 29 29 30 30 30 30 30 30 30 31
13 11 10 10 11 12 12 12 13 13 13 14 14 15 15 15 16 17 17 18 19 20 21 22 22 23 24 25 26 27 27 28 29 30 30 30 30 30 30 30 30 30 31 31 31 31 31 31 31
13 12 12 11 11 12 13 13 13 13 13 13 14 14 15 16 16 17 18 18 19 21 22 22 23 24 25 26 27 28 28 29 30 31 30 31 31 31 30 30 30 30 31 31 31 31 31 31 31
14 13 13 13 13 12 13 14 13 13 13 14 14 14 14 16 16 17 18 19 20 21 23 23 24 25 26 26 26 27 27 28 29 29 30 30 31 31 31 30 30 30 30 30 31 31 31 30 30
14 14 13 13 13 13 13 14 14 14 14 15 15 15 16 17 17 17 18 20 21 22 24 25 26 26 27 26 26 25 26 27 27 27 28 28 29 29 29 29 29 29 29 29 29 29 29 29 29
13 14 14 14 14 13 13 15 15 15 14 15 16 16 16 16 17 18 19 20 22 23 24 25 25 26 26 25 25 25 25 25 26 26 27 27 27 27 27 27 28 28 27 27 27 28 28 27 28
13 13 13 13 14 14 14 16 16 15 15 15 16 16 16 16 17 18 19 20 21 23 24 24 25 26 25 24 25 24 24 25 26 26 27 27 26 26 26 26 26 26 26 26 26 26 26 26 26
Wind_Direction
233 233 234 235 235 235 236 239 236 237 237 235 229 222 217 215 213 224 235 235 238 251 257 253 257 263 267 261 258 254 251 252 257 260 257 256 262 273 284 295 308 318 324 326 325 326 327 327 331
233 233 234 233 231 233 239 241 237 237 239 239 238 235 235 238 246 250 249 250 252 261 266 264 263 266 264 262 259 258 256 257 261 262 264 264 264 270 275 279 287 293 299 303 306 309 314 313 313
234 233 234 232 229 226 237 239 240 239 240 241 241 241 241 247 254 260 260 259 262 261 263 268 267 266 262 261 258 255 255 257 262 265 267 267 267 267 269 271 276 281 284 287 290 294 297 301 302
234 233 234 233 233 234 238 240 240 240 241 243 245 245 248 251 258 263 264 265 265 262 269 274 269 265 261 258 254 254 256 259 263 266 268 270 269 268 269 271 274 276 279 282 283 285 287 290 291
234 233 233 233 235 238 240 241 240 242 241 246 248 248 250 256 263 268 269 271 274 277 280 271 266 261 260 255 252 254 259 261 263 265 267 269 269 270 270 271 273 274 275 278 279 279 282 282 281
233 232 232 233 236 238 239 240 241 243 244 248 251 251 257 265 269 274 277 281 280 280 278 271 265 259 259 255 253 255 260 261 263 264 264 265 267 269 270 272 273 273 273 275 275 276 276 276 275
233 231 230 232 236 237 239 240 240 244 246 249 252 258 263 268 271 274 278 281 278 275 278 273 263 258 255 251 249 253 258 260 262 263 264 265 267 269 271 272 273 274 274 275 275 276 274 272 272
234 232 231 233 236 237 238 239 240 242 245 250 255 261 265 268 272 275 277 280 278 274 273 273 267 261 257 255 257 259 261 262 261 261 262 264 266 268 271 272 273 274 275 275 275 275 275 273 273
234 232 232 233 235 238 239 239 240 244 247 250 255 260 264 267 272 277 280 283 280 273 268 266 266 262 257 256 257 257 259 260 261 261 262 263 266 268 269 271 273 274 275 276 275 274 275 275 273
234 231 232 234 235 238 239 241 243 246 248 250 254 260 265 269 273 278 280 281 278 273 268 265 267 262 256 253 255 255 256 260 262 263 264 265 266 268 269 271 272 274 277 277 275 275 274 274 273
235 234 236 235 235 237 239 241 244 246 249 254 258 262 268 271 274 277 280 278 275 273 272 266 263 261 259 257 257 257 258 262 263 265 266 266 266 269 270 271 272 274 275 276 276 275 274 274 272
235 236 234 234 234 235 237 239 243 245 250 257 261 263 267 271 275 277 277 275 273 270 266 264 263 260 258 259 257 256 259 264 266 268 268 267 267 269 271 272 272 272 272 273 275 275 273 272 271
231 233 231 231 232 234 236 238 243 248 253 260 263 264 267 271 275 275 274 271 270 272 267 265 266 264 261 260 259 259 262 264 267 269 269 268 268 270 272 273 272 271 270 272 273 274 274 272 272
229 229 229 230 232 233 234 239 245 249 256 262 267 269 275 276 276 274 273 271 271 272 271 269 266 264 260 260 260 261 263 265 267 269 268 268 269 270 270 270 271 271 272 274 275 276 276 273 273
226 226 228 230 232 233 237 241 247 252 258 263 269 272 273 275 275 272 272 274 275 272 269 269 266 263 259 260 262 263 265 266 268 267 268 269 270 272 272 272 271 272 273 273 275 276 275 274 273
223 223 227 230 232 234 237 242 248 254 259 263 268 272 272 273 274 275 275 276 275 273 271 270 268 268 265 264 263 264 265 267 268 269 269 270 271 272 272 273 273 274 274 273 274 274 272 273 273
219 218 224 231 233 237 237 241 249 254 259 261 265 268 270 273 276 276 277 276 276 275 275 274 271 270 270 268 268 266 265 268 270 270 270 271 272 272 272 273 274 275 275 274 273 272 272 272 272
213 215 223 231 234 236 240 244 249 253 258 261 264 268 270 273 275 275 277 277 276 276 277 275 271 271 271 271 268 267 266 268 270 271 270 270 272 272 272 272 273 275 275 274 273 272 272 272 273
212 213 222 231 236 238 243 248 251 255 258 260 264 268 272 274 274 274 276 276 275 277 279 279 275 273 274 272 270 270 270 271 272 272 273 272 271 271 272 272 273 274 274 274 274 273 272 272 272
218 218 222 232 236 240 243 248 251 255 257 260 262 267 272 275 276 274 274 274 275 280 283 282 279 280 275 272 273 271 270 271 272 273 273 273 273 271 271 272 272 273 274 275 274 273 271 271 271
215 216 225 235 241 243 249 254 255 258 258 259 261 268 274 276 275 275 274 275 281 285 288 287 283 284 280 276 273 272 272 273 273 273 273 273 273 271 270 272 274 273 273 274 274 273 271 270 270
218 224 230 240 243 251 253 256 263 259 258 258 262 268 275 278 277 277 277 278 282 283 286 286 284 284 282 280 278 276 275 275 274 274 274 275 275 274 273 273 274 274 274 275 274 273 271 271 269
221 230 234 239 244 250 256 251 258 259 258 260 264 270 274 278 280 280 279 279 281 284 285 285 285 285 284 283 281 279 277 276 275 275 276 277 277 276 276 276 276 276 276 276 276 275 272 270 269
228 233 238 244 248 254 254 253 255 260 261 264 268 272 276 280 282 279 280 279 280 284 286 287 287 287 285 284 283 280 279 277 277 278 278 279 278 277 277 277 277 277 277 275 275 274 272 271 270
230 232 242 249 249 255 257 257 256 260 263 266 268 273 277 278 282 279 278 280 283 286 288 288 290 288 286 284 283 281 279 279 278 278 279 279 279 279 279 278 278 278 277 276 275 273 273 271 270
233 230 234 243 251 259 265 263 261 262 264 266 269 274 276 276 281 281 279 283 286 288 290 290 290 289 287 285 284 282 281 280 279 279 280 281 281 281 280 279 279 279 279 278 276 275 274 272 271
233 233 237 246 253 256 260 266 264 265 268 268 269 274 276 280 284 285 284 286 289 291 292 292 291 289 288 287 286 283 282 282 282 283 283 283 283 282 280 279 280 281 280 279 277 276 275 273 271
237 237 242 243 251 255 264 270 270 273 269 270 272 274 278 282 284 285 286 287 289 292 293 293 292 291 290 289 286 284 284 286 287 287 287 286 284 282 281 280 280 282 282 281 279 278 276 273 272
246 246 248 249 249 257 263 267 271 272 270 271 274 276 278 282 284 286 289 290 291 293 294 294 292 292 291 289 288 286 286 288 289 289 290 288 285 284 284 282 282 282 282 282 280 279 276 274 272
247 248 250 253 257 259 261 266 268 271 271 273 273 276 282 284 284 286 289 291 292 294 295 294 293 294 292 292 293 291 290 290 290 290 292 290 287 286 285 284 284 284 284 282 281 279 277 274 272
Height
5899 5901 5902 5904 5907 5909 5909 5909 5910 5910 5911 5911 5912 5913 5913 5913 5914 5916 5914 5912 5912 5913 5913 5913 5913 5913 5913 5913 5913 5913 5913 5913 5912 5912 5912 5912 5912 5912 5912 5912 5912 5912 5912 5912 5912 5911 5911 5910 5910
5897 5899 5901 5903 5905 5907 5907 5906 5908 5909 5909 5910 5911 5911 5911 5911 5912 5912 5911 5911 5911 5911 5911 5911 5911 5911 5911 5912 5912 5912 5911 5911 5911 5911 5911 5911 5911 5911 5911 5911 5911 5911 5911 5911 5910 5910 5910 5909 5909
5894 5896 5899 5901 5903 5905 5904 5904 5905 5906 5908 5909 5909 5910 5910 5910 5910 5910 5909 5909 5909 5909 5909 5909 5909 5909 5909 5909 5910 5910 5910 5910 5910 5910 5910 5910 5910 5910 5910 5910 5910 5910 5909 5909 5909 5909 5908 5908 5908
5891 5894 5896 5899 5899 5900 5900 5902 5903 5904 5905 5906 5907 5908 5908 5908 5908 5908 5907 5907 5907 5907 5907 5907 5907 5907 5907 5907 5907 5908 5908 5908 5908 5908 5908 5908 5908 5908 5908 5908 5908 5908 5908 5907 5907 5907 5906 5906 5906
5888 5891 5893 5895 5895 5896 5898 5899 5900 5902 5903 5904 5905 5906 5906 5906 5906 5906 5906 5905 5905 5905 5904 5904 5904 5904 5904 5904 5905 5905 5906 5906 5906 5906 5906 5906 5906 5906 5906 5906 5906 5906 5906 5905 5905 5905 5904 5904 5904
5886 5888 5891 5892 5892 5893 5894 5896 5898 5900 5901 5902 5903 5904 5904 5904 5904 5904 5904 5903 5903 5903 5902 5902 5901 5901 5901 5901 5902 5903 5903 5903 5904 5904 5904 5904 5904 5904 5904 5904 5904 5904 5903 5903 5903 5902 5902 5902 5901
5883 5885 5887 5888 5889 5890 5892 5893 5895 5897 5899 5900 5901 5901 5901 5901 5902 5902 5901 5901 5901 5900 5900 5899 5898 5898 5898 5898 5899 5899 5900 5900 5901 5901 5901 5901 5901 5901 5901 5901 5901 5901 5901 5900 5900 5899 5899 5899 5899
5878 5882 5883 5884 5886 5887 5889 5891 5893 5895 5896 5897 5898 5899 5899 5899 5899 5899 5899 5898 5898 5898 5897 5896 5896 5896 5896 5896 5896 5896 5897 5897 5897 5898 5898 5898 5898 5898 5898 5898 5898 5897 5897 5897 5897 5896 5896 5896 5895
5875 5879 5879 5881 5883 5884 5886 5888 5890 5891 5893 5894 5895 5896 5897 5897 5896 5896 5896 5895 5895 5894 5894 5893 5893 5893 5893 5893 5892 5893 5893 5894 5894 5894 5894 5894 5894 5894 5894 5894 5894 5893 5893 5893 5893 5893 5892 5892 5892
5871 5874 5875 5877 5879 5881 5883 5885 5887 5889 5890 5891 5893 5893 5894 5894 5893 5893 5893 5892 5891 5891 5890 5890 5890 5889 5889 5889 5889 5889 5890 5890 5890 5890 5890 5890 5890 5890 5890 5890 5889 5889 5889 5889 5889 5889 5888 5888 5887
5867 5869 5871 5873 5875 5878 5880 5882 5884 5886 5888 5889 5890 5891 5891 5891 5891 5890 5890 5889 5888 5888 5887 5886 5886 5886 5886 5886 5886 5886 5886 5886 5886 5886 5886 5886 5886 5886 5886 5886 5885 5885 5885 5884 5884 5884 5883 5883 5883
5864 5866 5868 5870 5872 5875 5877 5879 5882 5883 5885 5886 5886 5887 5887 5887 5887 5887 5886 5885 5885 5884 5883 5882 5883 5883 5882 5882 5882 5882 5882 5882 5882 5882 5882 5882 5882 5882 5881 5881 5881 5880 5880 5880 5879 5879 5879 5879 5878
5861 5863 5865 5868 5870 5872 5875 5877 5879 5880 5881 5882 5883 5883 5884 5883 5883 5883 5882 5882 5882 5881 5880 5879 5879 5879 5878 5878 5878 5878 5878 5878 5878 5878 5878 5878 5877 5877 5877 5876 5876 5875 5875 5875 5874 5874 5874 5873 5873
5858 5860 5863 5865 5867 5869 5872 5874 5876 5877 5878 5879 5880 5880 5880 5880 5880 5879 5878 5878 5877 5877 5876 5875 5874 5874 5874 5874 5874 5874 5874 5874 5874 5873 5873 5873 5873 5872 5872 5872 5871 5870 5870 5869 5869 5869 5868 5868 5868
5856 5859 5861 5863 5865 5867 5870 5872 5873 5874 5875 5876 5876 5876 5876 5876 5875 5875 5874 5874 5873 5873 5872 5871 5871 5870 5870 5870 5870 5869 5869 5869 5869 5869 5868 5868 5868 5867 5867 5866 5865 5865 5864 5864 5864 5863 5863 5863 5862
5854 5857 5859 5861 5863 5865 5870 5870 5870 5871 5872 5872 5873 5873 5872 5872 5872 5871 5871 5870 5869 5869 5869 5868 5867 5866 5866 5866 5866 5865 5865 5864 5864 5863 5863 5862 5862 5862 5861 5860 5860 5859 5858 5858 5858 5857 5857 5857 5856
5853 5856 5858 5859 5860 5863 5866 5866 5867 5868 5869 5869 5869 5869 5869 5868 5868 5868 5867 5866 5866 5865 5865 5864 5863 5863 5862 5862 5861 5860 5860 5860 5859 5858 5857 5857 5856 5856 5855 5854 5853 5853 5852 5851 5851 5851 5851 5850 5850
5852 5854 5856 5857 5858 5860 5862 5863 5864 5864 5865 5866 5866 5865 5865 5865 5864 5864 5863 5862 5862 5861 5861 5860 5859 5858 5857 5856 5855 5855 5855 5854 5853 5852 5851 5851 5850 5850 5849 5848 5847 5846 5846 5845 5845 5844 5844 5844 5843
5849 5852 5854 5854 5855 5857 5858 5859 5860 5861 5862 5862 5862 5862 5861 5861 5860 5860 5859 5859 5858 5858 5857 5856 5855 5854 5853 5852 5851 5850 5850 5849 5848 5847 5846 5845 5844 5843 5843 5842 5841 5840 5839 5838 5838 5837 5837 5837 5836
5847 5850 5852 5852 5853 5855 5856 5856 5857 5858 5858 5858 5858 5858 5857 5857 5856 5856 5855 5855 5854 5853 5852 5851 5850 5849 5848 5847 5846 5846 5845 5843 5842 5841 5840 5839 5838 5837 5836 5835 5835 5834 5833 5832 5831 5830 5830 5830 5829
5846 5848 5850 5851 5851 5852 5853 5854 5855 5855 5855 5855 5855 5855 5854 5854 5853 5852 5851 5850 5849 5849 5848 5846 5845 5844 5843 5842 5841 5839 5838 5837 5836 5835 5834 5833 5831 5831 5829 5828 5828 5826 5825 5825 5824 5823 5823 5822 5822
5844 5845 5847 5848 5850 5851 5852 5853 5852 5851 5851 5851 5851 5851 5850 5849 5848 5848 5847 5846 5845 5844 5843 5841 5840 5839 5837 5836 5835 5833 5832 5831 5830 5829 5828 5826 5825 5824 5822 5821 5820 5819 5818 5817 5816 5816 5815 5815 5814
5841 5843 5844 5846 5847 5849 5849 5850 5851 5848 5848 5847 5847 5847 5846 5845 5844 5843 5843 5842 5841 5840 5838 5837 5835 5833 5832 5830 5828 5827 5826 5825 5823 5822 5821 5819 5818 5816 5815 5814 5813 5812 5811 5810 5809 5808 5808 5807 5807
5839 5841 5842 5843 5845 5846 5846 5847 5848 5845 5845 5844 5844 5843 5842 5841 5840 5839 5838 5837 5836 5835 5833 5832 5830 5828 5826 5824 5822 5821 5819 5818 5816 5815 5814 5812 5811 5809 5808 5806 5805 5804 5803 5802 5801 5800 5800 5799 5799
5837 5840 5842 5843 5843 5844 5843 5843 5844 5842 5841 5840 5840 5839 5838 5837 5836 5835 5834 5833 5832 5830 5828 5826 5825 5822 5820 5818 5816 5814 5812 5811 5809 5808 5806 5804 5803 5801 5800 5798 5797 5795 5794 5793 5793 5792 5791 5791 5790
5834 5837 5840 5842 5842 5842 5839 5839 5840 5838 5837 5837 5836 5836 5835 5834 5832 5831 5830 5828 5827 5825 5823 5821 5819 5817 5814 5812 5809 5807 5805 5803 5802 5800 5798 5796 5794 5793 5791 5790 5789 5787 5786 5785 5784 5783 5782 5782 5781
5831 5832 5835 5836 5837 5837 5837 5835 5835 5834 5833 5833 5832 5832 5831 5830 5829 5827 5825 5824 5822 5820 5818 5815 5813 5811 5808 5805 5802 5800 5798 5796 5794 5792 5790 5788 5786 5785 5783 5781 5780 5779 5777 5776 5775 5774 5774 5773 5772
5828 5829 5830 5832 5833 5833 5834 5832 5832 5830 5829 5829 5828 5828 5827 5826 5824 5822 5821 5819 5817 5815 5812 5810 5807 5804 5801 5798 5795 5793 5791 5789 5787 5785 5782 5780 5778 5777 5775 5774 5772 5771 5769 5768 5767 5766 5765 5764 5764
5824 5825 5826 5828 5829 5830 5830 5831 5827 5826 5825 5825 5824 5823 5822 5821 5819 5818 5816 5814 5812 5810 5807 5804 5800 5797 5794 5791 5788 5786 5784 5782 5780 5778 5776 5773 5771 5769 5768 5766 5765 5763 5762 5760 5759 5758 5757 5756 5756
5820 5821 5822 5824 5824 5824 5825 5827 5822 5821 5821 5820 5819 5818 5817 5816 5814 5813 5811 5809 5806 5804 5801 5797 5794 5791 5788 5785 5782 5780 5778 5776 5773 5771 5769 5767 5764 5762 5761 5759 5757 5756 5754 5753 5751 5750 5749 5749 5749